Regional Weather Roundup
Issued by NWS

Home | Current Version | Previous Version | Text Only | Print | Product List | Glossary Off
Versions: 1 2 3 4 5 6 7 8 9 10 11 12 13 14 15 16 17 18 19 20 21 22 23 24 25 26 27 28 29 30 31 32 33 34 35 36 37 38 39 40 41 42 43 44 45 46 47 48 49 50

000
ASUS43 KMKX 220600
RWRWI

WISCONSIN REGIONAL WEATHER ROUNDUP
NATIONAL WEATHER SERVICE MILWAUKEE/SULLIVAN WI
100 AM CDT MON SEP 22 2014

NOTE: "FAIR" INDICATES FEW OR NO CLOUDS BELOW 12,000 FEET WITH NO
SIGNIFICANT WEATHER AND/OR OBSTRUCTIONS TO VISIBILITY.

WIZ001-002-006>008-014>016-023>028-220700-
NORTHWEST WISCONSIN

CITY           SKY/WX    TMP DP  RH WIND       PRES   REMARKS
SUPERIOR ARPT  CLEAR     42  42  99 CALM      30.18S
ASHLAND        CLEAR     41  40  96 SW5       30.18S
6HR MIN TEMP:  41; 6HR MAX TEMP:  49;

HAYWARD        CLEAR     41  40  96 CALM      30.20S
6HR MIN TEMP:  40; 6HR MAX TEMP:  56;

SIREN          CLEAR     42  41  96 CALM      30.21R
RICE LAKE      CLEAR     44  43  96 CALM      30.21F
LADYSMITH      CLEAR     41  40  96 CALM      30.21S
EAU CLAIRE     NOT AVBL
MENOMONIE      CLEAR     48  46  91 CALM      30.21S
NEW RICHMOND   CLEAR     46  46 100 SW5       30.22S
OSCEOLA        CLEAR     44  44 100 CALM      30.24S
$$

WIZ003>005-009-010-017-018-220700-
NORTH CENTRAL WISCONSIN

CITY           SKY/WX    TMP DP  RH WIND       PRES   REMARKS
WOODRUFF       CLEAR     39  37  92 CALM      30.17S
RHINELANDER    CLEAR     33  32  96 W3        30.17F
6HR MIN TEMP:  32; 6HR MAX TEMP:  46;

EAGLE RIVER    FOG       32  32 100 CALM      30.16S VSB 1/2
LAND O LAKES   CLEAR     32  32 100 CALM      30.16S
PHILLIPS       CLEAR     38  38 100 CALM      30.18S FOG
TOMAHAWK       CLEAR     33  32  96 CALM      30.18F
MEDFORD        CLEAR     37  37  99 CALM      30.19S FOG
MERRILL        CLEAR     36  36 100 CALM      30.18F
$$

WIZ029-030-035-036-043>047-220700-
CENTRAL WISCONSIN

CITY           SKY/WX    TMP DP  RH WIND       PRES   REMARKS
WAUSAU         CLEAR     41  39  93 CALM      30.17F
6HR MIN TEMP:  40; 6HR MAX TEMP:  53;

MOSINEE        CLEAR     41  41 100 W3        30.19S
MARSHFIELD     CLEAR     41  40  96 W5        30.19S
6HR MIN TEMP:  40; 6HR MAX TEMP:  53;

STEVENS POINT  CLEAR     37  36  97 CALM      30.19S
WAUPACA        CLEAR     43  42  93 CALM      30.19S
WAUTOMA        NOT AVBL
WISC RAPIDS    CLEAR     41  39  93 CALM      30.20F
6HR MIN TEMP:  40; 6HR MAX TEMP:  55;

CAMP DOUGLAS   CLEAR     37  37 100 CALM      30.20S
$$

WIZ011>013-019>022-031-037>040-048>050-220700-
NORTHEAST WISCONSIN

CITY           SKY/WX    TMP DP  RH WIND       PRES   REMARKS
ANTIGO         CLEAR     36  35  96 CALM      30.17S
STURGEON BAY   CLEAR     46  37  71 N10       30.16S
6HR MIN TEMP:  46; 6HR MAX TEMP:  48;

GREEN BAY      CLEAR     41  39  93 CALM      30.17S
6HR MIN TEMP:  41; 6HR MAX TEMP:  51;

MANITOWOC      NOT AVBL
APPLETON       CLEAR     41  39  93 W7        30.18S
CLINTONVILLE   CLEAR     39  37  93 CALM      30.18S
OSHKOSH        CLEAR     42  40  92 CALM      30.18R
6HR MIN TEMP:  42; 6HR MAX TEMP:  54;

$$

WIZ032>034-041-042-053>061-220700-
SOUTHWEST WISCONSIN

CITY           SKY/WX    TMP DP  RH WIND       PRES   REMARKS
LA CROSSE      CLEAR     49  46  90 SE5       30.21S
6HR MIN TEMP:  49; 6HR MAX TEMP:  61;

SPARTA         CLEAR     39  39  98 CALM      30.22S
VIROQUA        FAIR      44  43  96 CALM      30.21S
BOSCOBEL       MOCLDY    46  44  93 CALM      30.22S FOG
6HR MIN TEMP:  44; 6HR MAX TEMP:  61;

PRAIRIE DU CHI CLEAR     47  46  93 CALM      30.21S
PLATTEVILLE    FAIR      48  45  90 N3        30.21R
$$

WIZ056-057-062-063-064-067-068-220700-
SOUTH CENTRAL WISCONSIN

CITY           SKY/WX    TMP DP  RH WIND       PRES   REMARKS
BARABOO/DELLS  CLEAR     42  40  91 CALM      30.21R
LONE ROCK      NOT AVBL
WATERTOWN      CLEAR     45  41  87 N5        30.18R
MADISON        CLEAR     46  41  82 NW3       30.20R
6HR MIN TEMP:  46; 6HR MAX TEMP:  58;

MIDDLETON      FAIR      47  42  82 N6        30.20S
MONROE         CLEAR     48  43  81 N8        30.19R
JANESVILLE     CLEAR     46  43  87 CALM      30.18R
$$

WIZ051-052-058>065-066-070>072-220700-
SOUTHEAST WISCONSIN

CITY           SKY/WX    TMP DP  RH WIND       PRES   REMARKS
MILWAUKEE      CLEAR     48  41  76 NW7       30.18R
6HR MIN TEMP:  48; 6HR MAX TEMP:  55;

WAUKESHA       CLEAR     43  37  81 NW3       30.19R
MILWAUKEE/TIMM CLEAR     43  37  81 N5        30.18R
RACINE         PTCLDY    48  42  80 NW7       30.18R
6HR MIN TEMP:  48; 6HR MAX TEMP:  54;

BURLINGTON     CLEAR     37  37  99 CALM      30.17R
KENOSHA        CLEAR     47  42  83 N6        30.17R
6HR MIN TEMP:  45; 6HR MAX TEMP:  54;

FOND DU LAC    CLEAR     43  38  82 NW5       30.19R
6HR MIN TEMP:  43; 6HR MAX TEMP:  54;

SHEBOYGAN      CLEAR     43  38  82 NW3       30.18R
6HR MIN TEMP:  42; 6HR MAX TEMP:  53;

WEST BEND      CLEAR     43  37  81 NW3       30.17S
JUNEAU         CLEAR     43  39  86 N5        30.20R
$$

LSZ147-162-220700-
LAKE SUPERIOR

STATION/POSITION TIME  TEMP    WIND        PRES    WAVE
                       AIR SEA DIR/SP/G            HT/PER
                 (UTC) (F)     (DEG/KT/KT) (MB)    (FT/S)
W MID LAKE BUOY  0450   49 46  280/ 10/ 10 1020.4F   2/ 6
DEVILS ISLAND    0500   52     220/  7/  7 1021.4F
PORT WING        0500   45     170/  4/  5 1022.0R
SAXON HARBOR     0500   46     190/  3/  7 1021.7
$$

LMZ867-665-643>646-220700-
LAKE MICHIGAN

STATION/POSITION TIME  TEMP    WIND        PRES    WAVE
                       AIR SEA DIR/SP/G            HT/PER
                 (UTC) (F)     (DEG/KT/KT) (MB)    (FT/S)
N MID LAKE BUOY  0450   48 57  340/ 19/ 23 1020.1F   3/ 5
NORTHPORT PIER   0500   49     340/ 17/ 20 1020.7
KEWAUNEE LAKESHO 0500   44     330/  3/  5 1020.3R
SHEBOYGAN LAKESH 0500   47 51  320/  6/  7 1022.0R
PORT WASHINGTON  0500   47     320/  4/  6 1022.0R
ATWATER BUOY     0500   52     330/ 10/ 14 1022.0R
MILWAUKEE LAKESH 0500   50     320/  6/  8   N/A
S MID LAKE BUOY  0450   54 61  350/ 19/ 21 1020.3R   7/ 6
KENOSHA   LAKESH 0500   51     330/  7/ 11 1020.7S
$$

TC  - TEMPERATURE IN CELSIUS
VSB - VISIBILITY IN STATUTE MILES
WCI - WIND CHILL INDEX
HX  - HEAT INDEX




USA.gov is the U.S. government's official web portal to all federal, state and local government web resources and services.